Time,TemperatureF,DewpointF,PressureIn,WindDirection,WindDirectionDegrees,WindSpeedMPH,WindSpeedGustMPH,Humidity,HourlyPrecipIn,Conditions,Clouds,dailyrainin,SoftwareType,DateUTC
2013-03-07 00:02:00,33.0,23.0,30.17,NW,322,0.0,6.0,65,0.00,,,0.01,,2013-03-07 05:02:00,
2013-03-07 00:12:00,33.0,23.0,30.17,NW,322,0.0,6.0,65,0.00,,,0.01,,2013-03-07 05:12:00,
2013-03-07 00:22:00,33.0,22.0,30.17,East,90,1.0,4.0,64,0.00,,,0.01,,2013-03-07 05:22:00,
2013-03-07 00:32:00,33.0,23.0,30.17,East,80,0.0,8.0,65,0.00,,,0.01,,2013-03-07 05:32:00,
2013-03-07 00:42:00,33.0,23.0,30.17,East,80,0.0,8.0,65,0.00,,,0.01,,2013-03-07 05:42:00,
2013-03-07 00:52:00,33.0,23.0,30.16,NNW,342,2.0,5.0,65,0.00,,,0.01,,2013-03-07 05:52:00,
2013-03-07 01:02:00,33.0,23.0,30.17,NW,308,1.0,4.0,66,0.00,,,0.01,,2013-03-07 06:02:00,
2013-03-07 01:11:00,33.0,23.0,30.17,NW,308,1.0,4.0,66,0.00,,,0.01,,2013-03-07 06:11:00,
2013-03-07 01:21:00,33.0,23.0,30.17,NNW,340,1.0,6.0,66,0.00,,,0.01,,2013-03-07 06:21:00,
2013-03-07 01:32:00,33.0,23.0,30.17,ESE,107,1.0,4.0,66,0.00,,,0.01,,2013-03-07 06:32:00,
2013-03-07 01:42:00,33.0,23.0,30.17,ESE,107,1.0,4.0,66,0.00,,,0.01,,2013-03-07 06:42:00,
2013-03-07 01:52:00,33.0,23.0,30.18,ENE,73,2.0,9.0,65,0.00,,,0.01,,2013-03-07 06:52:00,
2013-03-07 02:01:00,33.0,23.0,30.18,North,353,0.0,7.0,65,0.00,,,0.01,,2013-03-07 07:01:00,
2013-03-07 02:11:00,33.0,23.0,30.18,North,353,0.0,7.0,65,0.00,,,0.01,,2013-03-07 07:11:00,
2013-03-07 02:22:00,33.0,23.0,30.18,North,353,0.0,7.0,65,0.00,,,0.01,,2013-03-07 07:22:00,
2013-03-07 02:32:00,33.0,23.0,30.18,WNW,302,0.0,3.0,65,0.00,,,0.01,,2013-03-07 07:32:00,
2013-03-07 02:43:00,33.0,23.0,30.18,WNW,302,0.0,3.0,65,0.00,,,0.01,,2013-03-07 07:43:00,
2013-03-07 02:53:00,33.0,23.0,30.19,WNW,285,1.0,4.0,65,0.00,,,0.01,,2013-03-07 07:53:00,
2013-03-07 03:03:00,33.0,23.0,30.19,NW,319,1.0,4.0,65,0.00,,,0.01,,2013-03-07 08:03:00,
2013-03-07 03:12:00,33.0,23.0,30.19,NW,319,1.0,4.0,65,0.00,,,0.01,,2013-03-07 08:12:00,
2013-03-07 03:23:00,32.0,22.0,30.18,East,79,1.0,4.0,65,0.00,,,0.01,,2013-03-07 08:23:00,
2013-03-07 03:33:00,32.0,22.0,30.18,West,280,1.0,7.0,65,0.00,,,0.01,,2013-03-07 08:33:00,
2013-03-07 03:44:00,32.0,22.0,30.18,West,280,1.0,7.0,65,0.00,,,0.01,,2013-03-07 08:44:00,
2013-03-07 03:53:00,32.0,22.0,30.18,WNW,290,1.0,6.0,65,0.00,,,0.01,,2013-03-07 08:53:00,
2013-03-07 04:03:00,32.0,22.0,30.18,NNW,330,1.0,8.0,65,0.00,,,0.01,,2013-03-07 09:03:00,
2013-03-07 04:13:00,32.0,22.0,30.18,NNW,330,1.0,8.0,65,0.00,,,0.01,,2013-03-07 09:13:00,
2013-03-07 04:23:00,32.0,22.0,30.18,NW,308,1.0,5.0,65,0.00,,,0.01,,2013-03-07 09:23:00,
2013-03-07 04:33:00,32.0,22.0,30.18,NW,322,2.0,6.0,65,0.00,,,0.01,,2013-03-07 09:33:00,
2013-03-07 04:43:00,32.0,22.0,30.18,NW,322,2.0,6.0,65,0.00,,,0.01,,2013-03-07 09:43:00,
2013-03-07 04:52:00,32.0,22.0,30.18,North,8,0.0,3.0,66,0.00,,,0.01,,2013-03-07 09:52:00,
2013-03-07 05:04:00,32.0,22.0,30.18,NW,309,0.0,3.0,66,0.00,,,0.01,,2013-03-07 10:04:00,
2013-03-07 05:13:00,32.0,22.0,30.18,NW,309,0.0,3.0,66,0.00,,,0.01,,2013-03-07 10:13:00,
2013-03-07 05:23:00,32.0,22.0,30.18,WNW,284,0.0,3.0,65,0.00,,,0.01,,2013-03-07 10:23:00,
2013-03-07 05:33:00,32.0,22.0,30.18,NW,308,0.0,3.0,65,0.00,,,0.01,,2013-03-07 10:33:00,
2013-03-07 05:43:00,32.0,22.0,30.18,NW,308,0.0,3.0,65,0.00,,,0.01,,2013-03-07 10:43:00,
2013-03-07 05:52:00,31.0,21.0,30.17,WNW,302,0.0,2.0,66,0.00,,,0.01,,2013-03-07 10:52:00,
2013-03-07 06:03:00,31.0,21.0,30.17,NNW,333,0.0,1.0,67,0.00,,,0.01,,2013-03-07 11:03:00,
2013-03-07 06:12:00,31.0,21.0,30.17,NNW,333,0.0,1.0,67,0.00,,,0.01,,2013-03-07 11:12:00,
2013-03-07 06:23:00,31.0,22.0,30.18,NNW,333,0.0,1.0,70,0.00,,,0.01,,2013-03-07 11:23:00,
2013-03-07 06:33:00,30.0,22.0,30.18,NNW,333,0.0,0.0,71,0.00,,,0.01,,2013-03-07 11:33:00,
2013-03-07 06:43:00,30.0,22.0,30.18,NNW,333,0.0,0.0,71,0.00,,,0.01,,2013-03-07 11:43:00,
2013-03-07 06:53:00,30.0,22.0,30.17,North,349,0.0,1.0,72,0.00,,,0.01,,2013-03-07 11:53:00,
2013-03-07 07:04:00,31.0,22.0,30.17,West,278,0.0,3.0,68,0.00,,,0.01,,2013-03-07 12:04:00,
2013-03-07 07:12:00,31.0,22.0,30.17,West,278,0.0,3.0,68,0.00,,,0.01,,2013-03-07 12:12:00,
2013-03-07 07:23:00,31.0,21.0,30.17,NW,309,0.0,3.0,67,0.00,,,0.01,,2013-03-07 12:23:00,
2013-03-07 07:33:00,31.0,21.0,30.18,NNW,342,0.0,2.0,67,0.00,,,0.01,,2013-03-07 12:33:00,
2013-03-07 07:43:00,31.0,21.0,30.18,NNW,342,0.0,2.0,67,0.00,,,0.01,,2013-03-07 12:43:00,
2013-03-07 07:52:00,32.0,22.0,30.18,NW,322,0.0,4.0,66,0.00,,,0.01,,2013-03-07 12:52:00,
2013-03-07 08:03:00,32.0,22.0,30.18,North,8,0.0,2.0,66,0.00,,,0.01,,2013-03-07 13:03:00,
2013-03-07 08:13:00,32.0,22.0,30.18,North,8,0.0,2.0,66,0.00,,,0.01,,2013-03-07 13:13:00,
2013-03-07 08:23:00,32.0,22.0,30.18,NW,322,1.0,3.0,65,0.00,,,0.01,,2013-03-07 13:23:00,
2013-03-07 08:32:00,32.0,22.0,30.19,WNW,297,1.0,4.0,65,0.00,,,0.01,,2013-03-07 13:32:00,
2013-03-07 08:42:00,32.0,22.0,30.19,WNW,297,1.0,4.0,65,0.00,,,0.01,,2013-03-07 13:42:00,
2013-03-07 08:53:00,33.0,22.0,30.19,NE,36,0.0,2.0,64,0.00,,,0.01,,2013-03-07 13:53:00,
2013-03-07 09:02:00,33.0,23.0,30.19,NNW,333,0.0,3.0,65,0.00,,,0.01,,2013-03-07 14:02:00,
2013-03-07 09:12:00,33.0,23.0,30.19,NNW,333,0.0,3.0,65,0.00,,,0.01,,2013-03-07 14:12:00,
2013-03-07 09:23:00,33.0,23.0,30.19,NW,307,2.0,4.0,65,0.00,,,0.01,,2013-03-07 14:23:00,
2013-03-07 09:33:00,33.0,23.0,30.19,WSW,257,1.0,5.0,65,0.00,,,0.01,,2013-03-07 14:33:00,
2013-03-07 09:43:00,33.0,23.0,30.19,WSW,257,1.0,5.0,65,0.00,,,0.01,,2013-03-07 14:43:00,
2013-03-07 09:53:00,33.0,23.0,30.20,WNW,295,1.0,4.0,65,0.00,,,0.01,,2013-03-07 14:53:00,
2013-03-07 10:03:00,33.0,23.0,30.20,NW,322,1.0,4.0,65,0.00,,,0.01,,2013-03-07 15:03:00,
2013-03-07 10:12:00,33.0,23.0,30.20,NW,322,1.0,4.0,65,0.00,,,0.01,,2013-03-07 15:12:00,
2013-03-07 10:23:00,34.0,23.0,30.20,NNW,328,2.0,4.0,65,0.00,,,0.01,,2013-03-07 15:23:00,
2013-03-07 10:33:00,34.0,24.0,30.19,WNW,294,2.0,6.0,66,0.00,,,0.01,,2013-03-07 15:33:00,
2013-03-07 10:43:00,34.0,24.0,30.19,WNW,294,2.0,6.0,66,0.00,,,0.01,,2013-03-07 15:43:00,
2013-03-07 10:52:00,34.0,24.0,30.19,NW,309,1.0,3.0,66,0.00,,,0.01,,2013-03-07 15:52:00,
2013-03-07 11:02:00,34.0,23.0,30.19,West,263,1.0,5.0,65,0.00,,,0.01,,2013-03-07 16:02:00,
2013-03-07 11:13:00,34.0,23.0,30.19,West,263,1.0,5.0,65,0.00,,,0.01,,2013-03-07 16:13:00,
2013-03-07 11:24:00,34.0,23.0,30.19,North,10,1.0,6.0,65,0.00,,,0.01,,2013-03-07 16:24:00,
2013-03-07 11:33:00,35.0,24.0,30.19,West,271,3.0,6.0,64,0.00,,,0.00,,2013-03-07 16:33:00,
2013-03-07 11:43:00,35.0,24.0,30.19,West,271,3.0,6.0,64,0.00,,,0.00,,2013-03-07 16:43:00,
2013-03-07 11:52:00,35.0,24.0,30.18,West,270,1.0,4.0,64,0.00,,,0.00,,2013-03-07 16:52:00,
2013-03-07 12:03:00,36.0,25.0,30.18,NW,311,1.0,4.0,63,0.00,,,0.00,,2013-03-07 17:03:00,
2013-03-07 12:12:00,36.0,25.0,30.18,NW,311,1.0,4.0,63,0.00,,,0.00,,2013-03-07 17:12:00,
2013-03-07 12:23:00,37.0,25.0,30.18,NNW,332,1.0,4.0,61,0.00,,,0.00,,2013-03-07 17:23:00,
2013-03-07 12:33:00,37.0,24.0,30.18,SW,229,2.0,7.0,60,0.00,,,0.00,,2013-03-07 17:33:00,
2013-03-07 12:43:00,37.0,24.0,30.18,SW,229,2.0,7.0,60,0.00,,,0.00,,2013-03-07 17:43:00,
2013-03-07 12:53:00,37.0,25.0,30.17,WNW,291,0.0,5.0,61,0.00,,,0.00,,2013-03-07 17:53:00,
2013-03-07 13:04:00,37.0,24.0,30.16,WNW,291,0.0,5.0,60,0.00,,,0.00,,2013-03-07 18:04:00,
2013-03-07 13:13:00,37.0,24.0,30.16,WNW,291,0.0,5.0,60,0.00,,,0.00,,2013-03-07 18:13:00,
2013-03-07 13:22:00,37.0,25.0,30.16,SW,218,2.0,9.0,61,0.00,,,0.00,,2013-03-07 18:22:00,
2013-03-07 13:32:00,37.0,24.0,30.16,SW,235,0.0,4.0,59,0.00,,,0.00,,2013-03-07 18:32:00,
2013-03-07 13:42:00,37.0,24.0,30.16,SW,235,0.0,4.0,59,0.00,,,0.00,,2013-03-07 18:42:00,
2013-03-07 13:52:00,37.0,24.0,30.16,WNW,291,1.0,5.0,60,0.00,,,0.00,,2013-03-07 18:52:00,
2013-03-07 14:03:00,37.0,25.0,30.16,West,281,0.0,5.0,61,0.00,,,0.00,,2013-03-07 19:03:00,
2013-03-07 14:12:00,37.0,25.0,30.16,West,281,0.0,5.0,61,0.00,,,0.00,,2013-03-07 19:12:00,
2013-03-07 14:23:00,37.0,25.0,30.16,West,278,2.0,6.0,62,0.00,,,0.00,,2013-03-07 19:23:00,
2013-03-07 14:35:00,37.0,25.0,30.16,NW,323,2.0,6.0,62,0.00,,,0.00,,2013-03-07 19:35:00,
2013-03-07 14:43:00,37.0,25.0,30.16,NW,323,2.0,6.0,62,0.00,,,0.00,,2013-03-07 19:43:00,
2013-03-07 14:52:00,37.0,26.0,30.16,WSW,256,0.0,4.0,64,0.00,,,0.00,,2013-03-07 19:52:00,
2013-03-07 15:02:00,36.0,26.0,30.17,West,274,2.0,7.0,66,0.00,,,0.00,,2013-03-07 20:02:00,
2013-03-07 15:14:00,36.0,26.0,30.17,West,274,2.0,7.0,66,0.00,,,0.00,,2013-03-07 20:14:00,
2013-03-07 15:22:00,36.0,26.0,30.17,SE,126,1.0,7.0,68,0.00,,,0.00,,2013-03-07 20:22:00,
2013-03-07 15:34:00,35.0,27.0,30.17,WSW,240,3.0,8.0,72,0.00,,,0.00,,2013-03-07 20:34:00,
2013-03-07 15:43:00,35.0,27.0,30.17,WSW,240,3.0,8.0,72,0.00,,,0.00,,2013-03-07 20:43:00,
2013-03-07 15:53:00,34.0,27.0,30.17,West,271,4.0,8.0,75,0.00,,,0.00,,2013-03-07 20:53:00,
2013-03-07 16:03:00,34.0,28.0,30.18,WSW,256,2.0,6.0,77,0.00,,,0.00,,2013-03-07 21:03:00,
2013-03-07 16:12:00,34.0,28.0,30.18,WSW,256,2.0,6.0,77,0.00,,,0.00,,2013-03-07 21:12:00,
2013-03-07 16:23:00,34.0,28.0,30.18,West,266,1.0,4.0,78,0.00,,,0.00,,2013-03-07 21:23:00,
2013-03-07 16:33:00,34.0,28.0,30.18,WNW,287,0.0,2.0,79,0.00,,,0.00,,2013-03-07 21:33:00,
2013-03-07 16:43:00,34.0,28.0,30.18,WNW,287,0.0,2.0,79,0.00,,,0.00,,2013-03-07 21:43:00,
2013-03-07 16:52:00,34.0,29.0,30.19,West,274,1.0,5.0,81,0.00,,,0.00,,2013-03-07 21:52:00,
2013-03-07 17:02:00,33.0,29.0,30.19,West,262,1.0,4.0,84,0.00,,,0.00,,2013-03-07 22:02:00,
2013-03-07 17:12:00,33.0,29.0,30.19,West,262,1.0,4.0,84,0.00,,,0.00,,2013-03-07 22:12:00,
2013-03-07 17:23:00,32.0,28.0,30.19,West,267,1.0,5.0,85,0.00,,,0.00,,2013-03-07 22:23:00,
2013-03-07 17:33:00,32.0,28.0,30.19,NW,323,1.0,5.0,86,0.00,,,0.00,,2013-03-07 22:33:00,
2013-03-07 17:43:00,32.0,28.0,30.19,NW,323,1.0,5.0,86,0.00,,,0.00,,2013-03-07 22:43:00,
2013-03-07 17:53:00,32.0,29.0,30.19,NW,319,0.0,4.0,87,0.00,,,0.00,,2013-03-07 22:53:00,
2013-03-07 18:03:00,32.0,28.0,30.20,WNW,293,0.0,4.0,86,0.00,,,0.00,,2013-03-07 23:03:00,
2013-03-07 18:13:00,32.0,28.0,30.20,WNW,293,0.0,4.0,86,0.00,,,0.00,,2013-03-07 23:13:00,
2013-03-07 18:22:00,31.0,28.0,30.21,NNW,336,1.0,5.0,87,0.00,,,0.00,,2013-03-07 23:22:00,
2013-03-07 18:34:00,31.0,28.0,30.21,West,262,1.0,4.0,88,0.00,,,0.00,,2013-03-07 23:34:00,
2013-03-07 18:43:00,31.0,28.0,30.21,West,262,1.0,4.0,88,0.00,,,0.00,,2013-03-07 23:43:00,
2013-03-07 18:53:00,31.0,28.0,30.21,WNW,282,0.0,2.0,90,0.00,,,0.00,,2013-03-07 23:53:00,
2013-03-07 19:04:00,30.0,28.0,30.22,WNW,282,0.0,1.0,91,0.00,,,0.00,,2013-03-08 00:04:00,
2013-03-07 19:13:00,30.0,28.0,30.22,WNW,282,0.0,1.0,91,0.00,,,0.00,,2013-03-08 00:13:00,
2013-03-07 19:23:00,30.0,28.0,30.21,NW,323,0.0,3.0,91,0.00,,,0.00,,2013-03-08 00:23:00,
2013-03-07 19:34:00,30.0,28.0,30.21,NW,319,0.0,2.0,92,0.00,,,0.00,,2013-03-08 00:34:00,
2013-03-07 19:44:00,30.0,28.0,30.21,NW,319,0.0,2.0,92,0.00,,,0.00,,2013-03-08 00:44:00,
2013-03-07 19:53:00,30.0,28.0,30.21,West,260,0.0,2.0,92,0.00,,,0.00,,2013-03-08 00:53:00,
2013-03-07 20:02:00,30.0,28.0,30.21,WNW,291,0.0,2.0,92,0.00,,,0.00,,2013-03-08 01:02:00,
2013-03-07 20:12:00,30.0,28.0,30.21,WNW,291,0.0,2.0,92,0.00,,,0.00,,2013-03-08 01:12:00,
2013-03-07 20:22:00,30.0,28.0,30.21,West,260,0.0,1.0,92,0.00,,,0.00,,2013-03-08 01:22:00,
2013-03-07 20:33:00,30.0,28.0,30.21,NW,307,0.0,2.0,93,0.00,,,0.00,,2013-03-08 01:33:00,
2013-03-07 20:42:00,30.0,28.0,30.21,NW,307,0.0,2.0,93,0.00,,,0.00,,2013-03-08 01:42:00,
2013-03-07 20:52:00,30.0,28.0,30.21,West,278,0.0,3.0,92,0.00,,,0.00,,2013-03-08 01:52:00,
2013-03-07 21:02:00,30.0,28.0,30.20,NW,323,1.0,2.0,92,0.00,,,0.00,,2013-03-08 02:02:00,
2013-03-07 21:12:00,30.0,28.0,30.20,WSW,257,0.0,3.0,92,0.00,,,0.00,,2013-03-08 02:12:00,
2013-03-07 21:22:00,30.0,28.0,30.20,WSW,257,0.0,3.0,92,0.00,,,0.00,,2013-03-08 02:22:00,
2013-03-07 21:32:00,30.0,28.0,30.19,WNW,296,0.0,2.0,93,0.00,,,0.00,,2013-03-08 02:32:00,
2013-03-07 21:42:00,30.0,28.0,30.19,WNW,296,0.0,2.0,93,0.00,,,0.00,,2013-03-08 02:42:00,
2013-03-07 21:52:00,30.0,28.0,30.19,West,269,0.0,2.0,93,0.00,,,0.00,,2013-03-08 02:52:00,
2013-03-07 22:02:00,29.0,27.0,30.19,NW,313,0.0,2.0,93,0.00,,,0.00,,2013-03-08 03:02:00,
2013-03-07 22:12:00,29.0,27.0,30.19,NW,313,0.0,2.0,93,0.00,,,0.00,,2013-03-08 03:12:00,
2013-03-07 22:22:00,29.0,27.0,30.19,West,266,0.0,2.0,92,0.00,,,0.00,,2013-03-08 03:22:00,
2013-03-07 22:33:00,29.0,27.0,30.19,West,266,0.0,2.0,92,0.00,,,0.00,,2013-03-08 03:33:00,
2013-03-07 22:43:00,29.0,27.0,30.19,West,266,0.0,2.0,92,0.00,,,0.00,,2013-03-08 03:43:00,
2013-03-07 22:52:00,29.0,27.0,30.18,West,266,0.0,1.0,92,0.00,,,0.00,,2013-03-08 03:52:00,
2013-03-07 23:02:00,29.0,27.0,30.18,West,271,0.0,2.0,92,0.00,,,0.00,,2013-03-08 04:02:00,
2013-03-07 23:12:00,29.0,27.0,30.18,West,271,0.0,2.0,92,0.00,,,0.00,,2013-03-08 04:12:00,
2013-03-07 23:22:00,29.0,27.0,30.18,West,267,0.0,1.0,92,0.00,,,0.00,,2013-03-08 04:22:00,
2013-03-07 23:32:00,28.0,26.0,30.18,WSW,245,0.0,2.0,92,0.00,,,0.00,,2013-03-08 04:32:00,
2013-03-07 23:42:00,28.0,26.0,30.18,WSW,245,0.0,2.0,92,0.00,,,0.00,,2013-03-08 04:42:00,
2013-03-07 23:52:00,28.0,26.0,30.18,WNW,282,0.0,1.0,92,0.00,,,0.00,,2013-03-08 04:52:00,